Weather Roundup
Issued by NWS

Home | Current Version | Previous Version | Graphics & Text | Print | Product List | Glossary Off
Versions: 1 2 3 4 5 6 7 8 9 10 11 12 13 14 15 16 17 18 19 20 21 22 23 24 25 26 27 28 29 30 31 32 33 34 35 36 37 38 39 40 41 42 43 44 45 46 47 48 49 50

000
NZUS93 KARX 180810
HRRWXR

CURRENT HOURLY OBSERVATIONS ACROSS
MUCH OF THE UPPER MISSISSIPPI VALLEY
NATIONAL WEATHER SERVICE LA CROSSE WI
200 AM CST THU DEC 18 2014


...SOUTHEAST MINNESOTA...


CITY           SKY/WX    TMP DP  RH WIND       PRES   REMARKS
ROCHESTER      MOCLDY    14  10  84 CALM      30.28S
ROCHESTER/MAYO FAIR      15  10  82 CALM      30.29S
WINONA         MOCLDY    18  14  86 CALM      30.33S
AUSTIN         PTCLDY    12  10  92 CALM      30.28S
ALBERT LEA     MOCLDY    16  12  86 CALM      30.28S
DODGE CENTER   PTCLDY    12  10  92 CALM      30.27S
PRESTON        CLOUDY    15  12  87 CALM      30.28S
OWATONNA       PTCLDY    10   7  85 CALM      30.29S
FARIBAULT      PTCLDY     9   7  92 CALM      30.30F
$$

...ELSEWHERE IN MINNESOTA...


CITY           SKY/WX    TMP DP  RH WIND       PRES   REMARKS
MINNEAPOLIS    PTCLDY    12   9  87 CALM      30.33F
INTNL FALLS    MOCLDY     0  -5  79 CALM      30.32R
DULUTH         FLURRIES  18  13  80 N5        30.28S WCI  11
RED WING       CLOUDY    14  10  85 CALM      30.32S
REDWOOD FALLS  MOCLDY     9   6  88 CALM      30.31S
MANKATO        MOCLDY    16   9  73 CALM      30.30F
WORTHINGTON    MOCLDY     9   7  92 CALM      30.26F
FAIRMONT       CLOUDY    10   7  85 CALM      30.29R
$$

...SOUTHWEST WISCONSIN...


CITY           SKY/WX    TMP DP  RH WIND       PRES   REMARKS
LA CROSSE      CLOUDY    20  14  77 NW3       30.32S
PRAIRIE DU CHI CLEAR     16  13  87 CALM      30.31S
BOSCOBEL       CLEAR     13  10  88 CALM      30.31F
LONE ROCK      CLEAR     19  12  74 CALM      30.30F
PLATTEVILLE    CLEAR     17  14  89 CALM      30.28S
FORT MC COY    CLOUDY    20  14  77 CALM      30.30S
CAMP DOUGLAS   CLOUDY    20  19  95 NW5       30.28F WCI  13
VIROQUA        CLOUDY    15  14  92 W3        30.26R
WIS DELLS      CLOUDY    19  15  84 CALM      30.27S
$$

...ELSEWHERE IN WISCONSIN...


CITY           SKY/WX    TMP DP  RH WIND       PRES   REMARKS
MILWAUKEE      CLEAR     20  13  74 W8        30.27R WCI  10
MADISON        CLEAR     17  13  84 CALM      30.27F
GREEN BAY      CLOUDY    27  22  81 NW6       30.28R WCI  20
EAU CLAIRE     CLOUDY    20  14  77 CALM      30.29F
BLACK RVR FLS  CLOUDY    21  14  74 CALM      30.29S
MEDFORD        CLOUDY    22  19  88 N7        30.24S WCI  13
WAUSAU         CLOUDY    24  19  81 N7        30.25S WCI  16
WIS RAPIDS     CLOUDY    20  14  77 NW3       30.28F
MARSHFIELD     CLOUDY    21  16  81 NW8       30.25F WCI  11
RICE LAKE      CLOUDY    21  17  83 N3        30.31R
$$

...NORTHEAST IOWA...


CITY           SKY/WX    TMP DP  RH WIND       PRES   REMARKS
DECORAH        PTCLDY    16  12  86 CALM      30.28R
MASON CITY     CLOUDY    16  12  84 CALM      30.31R
CHARLES CITY   PTCLDY    16  14  93 CALM      30.29S
OELWEIN        PTCLDY    14  10  85 CALM      30.29R
$$

...ELSEWHERE IN IOWA...


CITY           SKY/WX    TMP DP  RH WIND       PRES   REMARKS
DES MOINES     CLOUDY    23  17  78 E6        30.29S WCI  16
IOWA CITY      PTCLDY    16  13  88 W5        30.32R WCI   9
FORT DODGE     CLOUDY    18  12  79 CALM      30.29F
$$

...NORTHERN ILLINOIS...


CITY           SKY/WX    TMP DP  RH WIND       PRES   REMARKS
CHICAGO-OHARE  CLOUDY    23  15  71 NW6       30.28S WCI  16
CHICAGO-MIDWAY CLOUDY    26  17  68 NW7       30.29S WCI  18
MOLINE         CLEAR     17  13  84 S5        30.31R WCI  10
ROCKFORD       CLOUDY    23  14  68 N5        30.30F WCI  17
PEORIA         CLOUDY    21  16  81 CALM      30.32R
$$

NOTE: "FAIR" INDICATES FEW OR NO CLOUDS BELOW 12,000 FEET WITH NO
SIGNIFICANT WEATHER AND/OR OBSTRUCTIONS TO VISIBILITY. WIND
SPEEDS ARE IN MILES-PER-HOUR.



USA.gov is the U.S. government's official web portal to all federal, state and local government web resources and services.